User: anonymous   Login
Location: Unspecified
(51.0950°N, 12.9690°E)
Time: 12:57:11
(UTC+00:00)
Language:

PRISM - Orbit

View from above orbital plane
View from above orbital plane
View from above satellite
View from above satellite

Ground track
Ground track

The orbit data is extracted from the following two-line orbital elements,

1 33493U 09002B   24103.58449775  .00017710  00000-0  92989-3 0  9998
2 33493  98.2134 145.7082 0014597 113.6604 246.6160 15.15700447829104
Epoch (UTC): 12 April 2024 14:01:40
Eccentricity: 0.0014597
inclination: 98.2134°
perigee height: 509 km
apogee height: 529 km
right ascension of ascending node: 145.7082°
argument of perigee: 113.6604°
revolutions per day: 15.15700447
mean anomaly at epoch: 246.6160°
orbit number at epoch: 82910

The dashed part of the orbit path shows where the satellite is in the earth's shadow,  

DLR